User: anonymous   Login
Location: NJAA Observatory
(40.6819°N, 74.8979°W)
Time: 11:46:17
(UTC-04:00)
Language:

Cosmos 2263 Rocket - Orbit

View from above orbital plane
View from above orbital plane
View from above satellite
View from above satellite

Ground track
Ground track

The orbit data is extracted from the following two-line orbital elements,

1 22803U 93059B   17177.54538758 +.00000202 +00000-0 +12487-3 0  9998
2 22803 070.9895 229.7178 0016942 004.0822 356.0436 14.16771980229609
Epoch (UTC): 26 June 2017 13:05:21
Eccentricity: 0.0016942
inclination: 70.9895°
perigee height: 824 km
apogee height: 848 km
right ascension of ascending node: 229.7178°
argument of perigee: 4.0822°
revolutions per day: 14.16771980
mean anomaly at epoch: 356.0436°
orbit number at epoch: 22960

The dashed part of the orbit path shows where the satellite is in the earth's shadow,  

DLR